This is the latest recevied weather packets stored in our database for station/object TK5EP-13. If no packets are shown the sender has not sent any weather packets the latest 1 day(s).
| Time | Temp. | Humidity | Pressure | Rain* | Wind** | Luminosity | Snow |
|---|---|---|---|---|---|---|---|
| 1778012716 | 13.33° C | 94% | - | - | 3.13 m/s, 146° | - | - |
| 1778012412 | 12.78° C | 94% | - | - | 4.02 m/s, 146° | - | - |
| 1778012112 | 12.78° C | 94% | - | - | 3.58 m/s, 144° | - | - |
| 1778011811 | 12.78° C | 94% | - | - | 4.02 m/s, 147° | - | - |
| 1778011510 | 12.78° C | 94% | - | - | 4.02 m/s, 143° | - | - |
| 1778011206 | 13.33° C | 94% | - | - | 1.79 m/s, 126° | - | - |
| 1778010905 | 13.33° C | 94% | - | - | 2.24 m/s, 109° | - | - |
| 1778010604 | 13.33° C | 94% | - | - | 2.24 m/s, 120° | - | - |
| 1778010303 | 13.33° C | 94% | - | - | 2.24 m/s, 142° | - | - |
| 1778010003 | 13.33° C | 94% | - | - | 2.24 m/s, 128° | - | - |
| 1778009702 | 13.33° C | 94% | - | - | 3.13 m/s, 151° | - | - |
| 1778009401 | 13.33° C | 94% | - | - | 3.58 m/s, 155° | - | - |
| 1778009100 | 13.33° C | 94% | - | - | 4.47 m/s, 167° | - | - |
| 1778008799 | 13.33° C | 94% | - | - | 3.13 m/s, 165° | - | - |
| 1778008499 | 13.33° C | 94% | - | - | 4.47 m/s, 162° | - | - |
| 1778008198 | 13.33° C | 94% | - | - | 3.13 m/s, 167° | - | - |
| 1778007894 | 13.33° C | 94% | - | - | 3.58 m/s, 172° | - | - |
| 1778007593 | 13.33° C | 93% | - | - | 4.02 m/s, 159° | - | - |
| 1778007292 | 13.33° C | 93% | - | - | 3.58 m/s, 157° | - | - |
| 1778006991 | 13.33° C | 93% | - | - | 4.47 m/s, 158° | - | - |
| 1778006691 | 13.33° C | 93% | - | - | 4.47 m/s, 173° | - | - |
| 1778006390 | 13.33° C | 93% | - | - | 4.02 m/s, 176° | - | - |
| 1778006089 | 13.33° C | 93% | - | - | 4.02 m/s, 175° | - | - |
| 1778005788 | 13.33° C | 93% | - | - | 3.58 m/s, 140° | - | - |
| 1778005487 | 13.33° C | 93% | - | - | 4.47 m/s, 150° | - | - |
* Rain since midnight (hover to see other rain measurements)
** Current wind speed in m/s (hover to see current wind gust speed)